#timestamp,LO_Frequency,Hit,StdDev 
1681426815.7,286046999.2,N
1681426835.5,286046999.4,N
1681426855.3,286046997.2,N
1681426875.2,286046997.1,N
1681426895.0,286046999.1,N
1681426895.9,286046999.1,N
1681426915.8,286046998.3,N
1681426935.6,286046999.6,N
1681426955.4,286046999.2,N
1681426975.3,286046998.6,N
1681426995.1,286047000.5,N
1681427015.9,286047000.3,N
1681427035.7,286046998.1,N
1681427055.5,286047001.2,N
1681427075.4,286046999.4,N
1681427095.2,286046996.9,Y
1681427115.1,286046998.4,P
1681427116.0,286046998.4,P
1681427135.8,286046998.4,P
1681427155.6,286046999.0,Y
1681427175.5,286047000.1,P
1681427195.3,286047002.1,N
1681427215.2,286047002.5,N
1681427235.9,286047001.7,N
1681427255.7,286047004.3,N
1681427275.6,286047003.1,N
1681427295.4,286047003.6,N
1681427315.2,286047003.8,N
1681427335.1,286047003.9,N
1681427336.0,286047003.9,N
1681427355.8,286047003.2,N
1681427375.7,286047003.3,N
1681427395.5,286047003.4,N
1681427415.3,286047003.9,N
1681427435.2,286047005.8,Y
1681427455.0,286046999.7,P
1681427455.9,286046999.7,N
1681427475.8,286046999.9,N
1681427495.6,286047000.5,N
1681427515.4,286047000.6,N
1681427535.3,286047000.5,N
1681427555.1,286046999.9,N
1681427575.9,286047000.9,N
1681427595.7,286047001.2,N
1681427615.5,286046998.3,N
1681427635.4,286046998.6,N
1681427655.2,286047000.9,N
1681427675.1,286046998.6,N
1681427676.0,286046998.6,N
1681427695.8,286046998.8,N
1681427715.6,286046998.4,N
1681427735.5,286046999.3,N
1681427755.3,286046998.7,N
1681427775.1,286047001.0,N
1681427795.9,286046999.7,N
1681427815.7,286046999.7,N
1681427835.6,286047000.4,N
1681427855.4,286047000.4,N
1681427875.2,286047000.0,N
1681427895.1,286047000.2,N
1681427896.0,286047000.2,N
1681427915.8,286047001.0,N
1681427935.6,286047001.1,N
1681427955.5,286046999.2,N
1681427975.3,286046999.2,N
1681427995.2,286046998.9,N
1681428015.9,286046999.4,N
1681428035.7,286047001.1,N
1681428055.6,286047000.9,N
1681428075.4,286046998.3,N
1681428095.2,286046998.5,N
1681428115.1,286047001.2,N
1681428116.0,286047001.2,N
1681428135.8,286047001.2,N
1681428155.7,286047000.9,N
1681428175.5,286047000.6,N
1681428195.3,286047000.6,N
1681428215.2,286047000.0,N
1681428235.9,286047002.2,N
1681428255.7,286047000.3,N
1681428275.6,286046998.7,N
1681428295.4,286046998.9,N
1681428315.2,286047001.1,N
1681428335.1,286047000.0,N
1681428336.0,286047000.0,N
1681428355.8,286047001.1,N
1681428375.7,286047000.4,N
1681428395.5,286047000.4,N
1681428415.3,286046998.3,N
1681428435.2,286047000.1,N
1681428455.0,286047000.4,N
1681428455.9,286047000.4,N
1681428475.8,286047000.7,N
1681428495.6,286046999.7,N
1681428515.4,286047000.5,N
1681428535.3,286047000.6,N
1681428555.1,286046998.4,N
1681428556.0,286046998.4,N
1681428575.8,286046998.5,N
1681428595.7,286046998.4,N
1681428615.5,286046998.8,N
1681428635.3,286046998.6,N
1681428655.2,286046998.7,N
1681428675.0,286046999.3,N
1681428675.9,286046999.3,N
1681428695.8,286046998.8,N
1681428715.6,286046998.9,N
1681428735.5,286046996.5,Y
1681428755.3,286046998.6,P
1681428775.1,286046998.9,N
1681428795.9,286046998.2,P
1681428815.7,286047001.0,N
1681428835.5,286046999.0,N
1681428855.4,286046998.7,N
1681428875.2,286046999.6,N
1681428895.1,286046997.3,Y
1681428896.0,286046997.3,P
1681428915.8,286046996.6,P
1681428935.6,286046998.6,N
1681428955.5,286046999.0,N
1681428975.3,286046996.6,Y
1681428995.2,286047001.0,P
1681429015.0,286046998.1,N
1681429015.9,286046998.1,N
1681429035.7,286047001.2,N
1681429055.6,286046999.1,N
1681429075.4,286046999.2,N
1681429095.3,286046996.9,N
1681429115.1,286046996.7,N
1681429116.0,286046996.7,N
1681429135.8,286046997.0,N
1681429155.7,286046997.0,N
1681429175.5,286046997.3,N
1681429195.3,286046997.3,N
1681429215.2,286046994.9,Y
1681429235.0,286046999.5,P
1681429235.9,286046999.5,N
1681429255.8,286046997.3,P
1681429275.6,286046997.3,N
1681429295.4,286046996.7,Y
1681429315.3,286046998.7,P
1681429335.1,286046999.4,P
1681429355.9,286046997.1,P
1681429375.7,286046996.8,Y
1681429395.5,286046998.7,P
1681429415.4,286046998.6,P
1681429435.2,286046997.0,P
1681429455.1,286046996.9,Y
1681429456.0,286046996.9,P
1681429475.8,286047000.8,N
1681429495.6,286046999.9,N
1681429515.5,286046998.2,N
1681429535.3,286046999.6,N
1681429555.1,286046998.4,N
1681429575.9,286046999.0,N
1681429595.7,286046998.7,N
1681429615.6,286046996.5,Y
1681429635.4,286046998.7,P
1681429655.2,286046999.3,P
1681429675.1,286046999.4,N
1681429676.0,286046999.4,N
1681429695.8,286046996.8,Y
1681429715.7,286046998.2,P
1681429735.5,286046999.7,N
1681429755.3,286047000.1,N
1681429775.2,286047000.9,N
1681429795.9,286047000.0,N
1681429815.7,286047001.0,N
1681429835.6,286046999.9,N
1681429855.4,286047000.4,N
1681429875.3,286046999.8,N
1681429895.1,286047002.2,N
1681429896.0,286047002.2,N
1681429915.8,286047002.8,N
1681429935.7,286047000.0,N
1681429955.5,286047000.1,N
1681429975.3,286047001.0,N
1681429995.2,286047000.1,N
1681430015.0,286046999.9,N
1681430015.9,286046999.9,N
1681430035.8,286047002.2,N
1681430055.6,286047001.0,N
1681430075.4,286046998.7,N
1681430095.3,286047001.0,N
1681430115.1,286047001.0,N
1681430135.8,286047000.8,N
1681430155.7,286047001.0,N
1681430175.5,286046998.6,N
1681430195.4,286046998.1,N
1681430215.2,286046998.4,N
1681430235.0,286046998.5,N
1681430235.9,286046998.5,N
1681430255.8,286047001.2,N
1681430275.6,286046999.2,N
1681430295.4,286046998.2,N
1681430315.3,286046998.3,N
1681430335.1,286047000.7,N
1681430355.9,286047001.2,N
1681430375.7,286046999.3,N
1681430395.5,286046996.6,N
